[[{"header":{"parameterUnit":"m.s-1","parameterCategory":1,"la1":30.2991,"la2":30.254,"lo1":-89.0895,"lo2":-89.0444,"dy":0.0017,"dx":0.0017,"nx":28,"ny":28,"refTime":"2023-09-01T21:00:00:Z","depth":0,"parameterNumber":2,"parameterNumberName":"U-component_of_WINDS"},"data":[0,0,0,0,0,0,0,0,0,0,0,0,0,0,0,0,0,0,0,0,0,0,0,0,0,0,0,0,0,0,0,0,0,0,0,0,0,0,0,0,0,0,0,0,0,0,0,0,0,0,0,0,0,0,0,0,0,0,-0.3085,-0.3084,0,-0.2948,-0.2946,-0.2945,-0.2874,-0.2874,-0.2874,-0.2874,-0.2726,-0.2723,-0.2719,0,0,0,0,0,0,0,0,0,0,0,0,0,-0.3281,-0.3278,-0.3085,-0.3084,-0.3082,-0.2948,-0.2946,-0.2944,-0.2874,-0.2874,-0.2874,-0.2874,-0.2728,-0.2723,-0.2718,0,0,0,0,0,0,0,0,0,0,0,0,0,-0.3175,-0.3277,-0.3086,-0.3031,-0.3025,-0.2948,-0.2946,-0.2944,-0.2874,-0.2874,-0.2874,-0.2874,-0.2729,-0.2723,-0.2718,-0.2683,0,0,-0.27,-0.2697,0,0,0,0,0,0,0,0,-0.3181,-0.3168,-0.3041,-0.3035,-0.3027,-0.2928,-0.2961,-0.2856,-0.2874,-0.2931,-0.2874,-0.2874,-0.2793,-0.2782,-0.2756,-0.2676,-0.267,-0.2699,-0.2696,-0.2693,-0.2692,0,0,0,0,0,0,0,-0.3188,-0.3173,-0.3031,-0.3039,-0.3031,-0.3011,-0.2996,-0.2941,-0.2864,-0.2926,-0.2921,-0.2906,-0.2789,-0.2762,-0.2752,-0.2668,-0.27,-0.2694,-0.2691,-0.2688,-0.2552,-0.2552,0,0,0,0,0,0,-0.3205,-0.318,-0.3035,-0.3027,-0.3106,-0.3008,-0.2991,-0.296,-0.2864,-0.285,-0.2906,-0.2903,-0.2772,-0.2759,-0.2747,-0.27,-0.2693,-0.2688,-0.2685,-0.2553,-0.2552,-0.2552,0,0,0,0,0,0,-0.321,-0.3193,-0.3041,-0.3102,-0.3081,-0.3005,-0.297,-0.2957,-0.293,-0.2849,-0.2835,-0.2893,-0.2771,-0.2755,-0.27,-0.2694,-0.2685,-0.268,-0.2553,-0.2553,-0.2552,-0.2606,0,0,0,0,0,0,-0.3216,-0.3195,-0.3183,-0.3102,-0.3078,-0.2998,-0.297,-0.2955,-0.2921,-0.2916,-0.2833,-0.2819,-0.277,-0.2709,-0.2694,-0.2685,-0.2675,-0.2553,-0.2553,-0.2552,-0.2605,-0.2608,-0.2611,0,0,0,0,0,-0.3223,-0.3202,-0.3183,-0.3165,-0.3061,-0.2998,-0.2984,-0.293,-0.2921,-0.2906,-0.2855,-0.2821,-0.2697,-0.2704,-0.2687,-0.2676,-0.2553,-0.2553,-0.2552,-0.2603,-0.2607,-0.2611,0,0,0,0,0,0,-0.3281,-0.319,-0.3168,-0.312,-0.3068,-0.2986,-0.2967,-0.2936,-0.2883,-0.288,-0.2814,-0.2796,-0.2747,-0.2706,-0.2715,-0.2638,-0.2622,-0.2618,-0.2666,-0.2669,-0.2672,-0.2683,-0.2671,0,0,0,0,0,-0.3289,-0.3247,-0.3169,-0.3135,-0.311,-0.3043,-0.3014,-0.2977,-0.2919,-0.2896,-0.284,-0.2783,-0.2731,-0.2698,-0.2646,-0.2599,-0.2579,-0.2583,-0.2586,-0.2589,-0.2586,-0.2558,-0.2558,-0.2551,-0.2551,-0.2551,0,0,-0.3303,-0.3249,-0.3226,-0.3145,-0.31,-0.3057,-0.3025,-0.298,-0.2947,-0.2888,-0.2834,-0.2791,-0.2723,-0.2672,-0.2647,-0.2636,-0.2584,-0.2589,-0.2592,-0.2587,-0.2557,-0.2558,-0.2559,-0.2551,-0.2551,-0.2551,0,0,-0.3308,-0.3263,-0.3229,-0.3185,-0.3119,-0.3075,-0.3067,-0.299,-0.2961,-0.2905,-0.2861,-0.2819,-0.2731,-0.2685,-0.2649,-0.2638,-0.2605,-0.2623,-0.2638,-0.2611,-0.2611,-0.2612,-0.2606,-0.2606,-0.262,-0.262,-0.262,0,-0.3333,-0.3268,-0.3215,-0.3173,-0.3139,-0.3087,-0.3051,-0.3011,-0.2929,-0.2906,-0.2896,-0.2785,-0.2736,-0.2673,-0.2671,-0.2644,-0.2632,-0.2631,-0.2616,-0.2616,-0.2615,-0.2609,-0.2608,-0.2623,-0.2623,-0.2622,-0.2622,0,-0.3303,-0.3259,-0.3239,-0.3165,-0.3128,-0.309,-0.3029,-0.2998,-0.2965,-0.2922,-0.2866,-0.2805,-0.2739,-0.2722,-0.2688,-0.2654,-0.265,-0.2629,-0.2611,-0.2619,-0.2613,-0.261,-0.2627,-0.2626,-0.2625,-0.2624,0,0,-0.3338,-0.3237,-0.323,-0.3196,-0.312,-0.3083,-0.3042,-0.2981,-0.2955,-0.2901,-0.2864,-0.2791,-0.2772,-0.2732,-0.2693,-0.267,-0.2664,-0.2651,-0.2649,-0.2655,-0.2621,-0.2637,-0.2636,-0.2642,-0.2642,-0.2641,-0.2627,0,-0.3331,-0.3257,-0.3209,-0.3153,-0.3111,-0.3062,-0.3026,-0.2974,-0.2933,-0.2889,-0.2842,-0.2792,-0.2771,-0.2747,-0.2722,-0.267,-0.2656,-0.267,-0.2605,-0.2603,-0.2622,-0.2632,-0.2648,-0.2638,-0.2624,-0.2624,-0.2623,0,-0.3312,-0.3263,-0.3204,-0.3133,-0.3113,-0.3082,-0.3022,-0.2982,-0.2922,-0.2893,-0.285,-0.2811,-0.2763,-0.2751,-0.2684,-0.2695,-0.2666,-0.2636,-0.2634,-0.2625,-0.2613,-0.2622,-0.2633,-0.2631,-0.2619,-0.2619,-0.262,0,-0.3343,-0.3261,-0.3216,-0.3188,-0.3104,-0.3083,-0.3047,-0.2987,-0.2953,-0.29,-0.2877,-0.2819,-0.2786,-0.2741,-0.2686,-0.2682,-0.2624,-0.2608,-0.2597,-0.2599,-0.2586,-0.2587,-0.2592,-0.2569,-0.2569,-0.2569,-0.2569,0,-0.3339,-0.3305,-0.3228,-0.32,-0.316,-0.3104,-0.3065,-0.3024,-0.2972,-0.2933,-0.2887,-0.2851,-0.2782,-0.2737,-0.2694,-0.2644,-0.263,-0.2604,-0.2593,-0.2607,-0.2611,-0.2586,-0.2585,-0.2569,-0.2569,-0.2569,-0.2569,0,-0.3366,-0.3314,-0.3261,-0.3187,-0.3167,-0.3141,-0.3076,-0.3046,-0.3003,-0.2955,-0.294,-0.2872,-0.2817,-0.2759,-0.2683,-0.2654,-0.2606,-0.2591,-0.2627,-0.2621,-0.2614,-0.2615,-0.2601,-0.2596,-0.2579,-0.2579,-0.2579,0,-0.3367,-0.334,-0.3263,-0.3236,-0.3201,-0.3157,-0.3123,-0.3067,-0.3033,-0.2963,-0.2941,-0.2884,-0.2835,-0.2749,-0.2691,-0.2633,-0.2615,-0.2614,-0.2606,-0.2622,-0.2613,-0.2616,-0.2612,-0.2616,-0.2617,-0.2617,-0.2618,0,-0.3373,-0.3349,-0.3303,-0.3249,-0.3211,-0.3165,-0.3116,-0.3096,-0.3029,-0.2994,-0.2939,-0.2901,-0.2826,-0.2768,-0.2704,-0.2663,-0.2629,-0.2621,-0.2616,-0.263,-0.2652,-0.2639,-0.2634,-0.2621,-0.2621,-0.2621,-0.262,-0.262,-0.3385,-0.3359,-0.3302,-0.3253,-0.3212,-0.3168,-0.3136,-0.3091,-0.3045,-0.2981,-0.295,-0.2894,-0.2834,-0.2744,-0.2705,-0.266,-0.2649,-0.2641,-0.2639,-0.2638,-0.2641,-0.2661,-0.2648,-0.2648,-0.2647,-0.2647,-0.2647,0,-0.3389,-0.335,-0.3306,-0.3241,-0.3202,-0.3177,-0.3122,-0.3091,-0.3044,-0.2992,-0.2945,-0.2882,-0.2826,-0.2765,-0.2705,-0.2681,-0.2663,-0.2667,-0.2667,-0.2658,-0.2654,-0.2665,-0.2682,-0.2682,-0.2682,-0.2682,-0.2682,-0.2682,-0.3386,-0.334,-0.331,-0.3243,-0.3203,-0.3151,-0.3122,-0.3081,-0.3039,-0.2972,-0.2926,-0.2888,-0.2832,-0.2768,-0.2715,-0.2698,-0.2678,-0.2686,-0.2664,-0.2661,-0.2659,-0.2656,-0.2665,-0.2682,-0.2682,-0.2672,-0.2672,-0.2671]},{"header":{"parameterUnit":"m.s-1","parameterCategory":1,"la1":30.2991,"la2":30.254,"lo1":-89.0895,"lo2":-89.0444,"dy":0.0017,"dx":0.0017,"nx":28,"ny":28,"refTime":"2023-09-01T21:00:00:Z","depth":0,"parameterNumber":3,"parameterNumberName":"V-component_of_WINDS"},"data":[0,0,0,0,0,0,0,0,0,0,0,0,0,0,0,0,0,0,0,0,0,0,0,0,0,0,0,0,0,0,0,0,0,0,0,0,0,0,0,0,0,0,0,0,0,0,0,0,0,0,0,0,0,0,0,0,0,0,-0.0538,-0.0539,0,-0.0605,-0.0606,-0.0607,-0.0639,-0.0639,-0.0639,-0.0639,-0.0707,-0.0709,-0.0711,0,0,0,0,0,0,0,0,0,0,0,0,0,-0.0439,-0.0441,-0.0538,-0.0539,-0.054,-0.0605,-0.0606,-0.0607,-0.0639,-0.0639,-0.0639,-0.0639,-0.0707,-0.0709,-0.0711,0,0,0,0,0,0,0,0,0,0,0,0,0,-0.0491,-0.0441,-0.0538,-0.0564,-0.0567,-0.0605,-0.0606,-0.0607,-0.0639,-0.0639,-0.0639,-0.0639,-0.0706,-0.0708,-0.0711,-0.0729,0,0,-0.072,-0.0721,0,0,0,0,0,0,0,0,-0.0488,-0.0495,-0.0559,-0.0562,-0.0565,-0.0614,-0.0596,-0.0648,-0.0639,-0.0611,-0.0639,-0.0639,-0.0676,-0.0681,-0.0694,-0.0732,-0.0735,-0.072,-0.0722,-0.0723,-0.0723,0,0,0,0,0,0,0,-0.0485,-0.0492,-0.0565,-0.056,-0.0564,-0.0572,-0.058,-0.0606,-0.0643,-0.0614,-0.0616,-0.0624,-0.0678,-0.0691,-0.0696,-0.0736,-0.072,-0.0722,-0.0724,-0.0725,-0.0793,-0.0793,0,0,0,0,0,0,-0.0477,-0.0489,-0.0562,-0.0567,-0.0526,-0.0574,-0.0582,-0.0598,-0.0643,-0.065,-0.0624,-0.0625,-0.0686,-0.0692,-0.0698,-0.0723,-0.0723,-0.0725,-0.0727,-0.0793,-0.0793,-0.0793,0,0,0,0,0,0,-0.0475,-0.0483,-0.056,-0.0529,-0.0539,-0.0576,-0.0593,-0.0599,-0.0613,-0.065,-0.0657,-0.0631,-0.0687,-0.0694,-0.0721,-0.0726,-0.0727,-0.0729,-0.0793,-0.0793,-0.0793,-0.0771,0,0,0,0,0,0,-0.0472,-0.0482,-0.0489,-0.0529,-0.0541,-0.0581,-0.0593,-0.0601,-0.0618,-0.062,-0.0659,-0.0665,-0.0687,-0.0717,-0.0724,-0.0729,-0.0731,-0.0793,-0.0793,-0.0793,-0.0772,-0.0771,-0.077,0,0,0,0,0,-0.0468,-0.048,-0.0489,-0.0498,-0.055,-0.0582,-0.0588,-0.0614,-0.0618,-0.0625,-0.0649,-0.0664,-0.0724,-0.0719,-0.0728,-0.0734,-0.0792,-0.0793,-0.0793,-0.0772,-0.0771,-0.077,0,0,0,0,0,0,-0.0439,-0.0485,-0.0496,-0.0521,-0.0547,-0.0587,-0.0597,-0.0611,-0.0637,-0.0638,-0.0669,-0.0677,-0.0701,-0.072,-0.0715,-0.0754,-0.076,-0.0762,-0.0741,-0.074,-0.0739,-0.0734,-0.0733,0,0,0,0,0,-0.0436,-0.0458,-0.0497,-0.0515,-0.0528,-0.056,-0.0575,-0.0592,-0.062,-0.0632,-0.0658,-0.0685,-0.071,-0.0726,-0.0751,-0.0774,-0.0784,-0.0783,-0.0782,-0.0781,-0.0782,-0.0797,-0.0798,-0.0795,-0.0795,-0.0795,0,0,-0.0429,-0.0457,-0.0469,-0.051,-0.0532,-0.0555,-0.0569,-0.0592,-0.0609,-0.0635,-0.0663,-0.0683,-0.0715,-0.074,-0.0753,-0.0757,-0.0785,-0.0781,-0.078,-0.0782,-0.0798,-0.0798,-0.0798,-0.0795,-0.0795,-0.0795,0,0,-0.0428,-0.0451,-0.047,-0.0492,-0.0526,-0.0547,-0.0551,-0.0589,-0.0604,-0.0632,-0.0652,-0.0673,-0.0715,-0.0738,-0.0755,-0.0763,-0.0778,-0.0771,-0.0766,-0.078,-0.078,-0.078,-0.0784,-0.0785,-0.0772,-0.0772,-0.0772,0,-0.0416,-0.045,-0.0477,-0.0499,-0.0517,-0.0542,-0.0561,-0.0581,-0.0621,-0.0633,-0.0637,-0.0692,-0.0715,-0.0747,-0.0749,-0.0761,-0.0768,-0.0766,-0.0778,-0.0778,-0.0779,-0.0783,-0.0785,-0.0771,-0.0771,-0.0771,-0.0771,0,-0.0433,-0.0457,-0.0468,-0.0506,-0.0525,-0.0546,-0.0576,-0.0592,-0.0608,-0.0629,-0.0658,-0.0687,-0.0719,-0.0727,-0.0743,-0.0762,-0.0763,-0.0772,-0.0778,-0.0778,-0.0783,-0.0784,-0.0769,-0.077,-0.077,-0.077,0,0,-0.0416,-0.047,-0.0474,-0.0492,-0.0532,-0.0551,-0.0572,-0.0604,-0.0617,-0.0644,-0.0664,-0.0699,-0.0708,-0.0727,-0.0746,-0.0758,-0.0764,-0.0765,-0.0767,-0.0765,-0.0788,-0.0782,-0.0783,-0.0774,-0.0774,-0.0774,-0.0785,0,-0.0422,-0.0462,-0.0488,-0.0518,-0.0541,-0.0565,-0.0584,-0.0611,-0.0631,-0.0654,-0.0677,-0.0702,-0.0711,-0.0723,-0.0736,-0.076,-0.0769,-0.076,-0.0793,-0.0794,-0.0785,-0.0785,-0.0779,-0.0787,-0.0787,-0.0788,-0.0788,0,-0.0434,-0.0461,-0.0493,-0.0531,-0.0542,-0.0558,-0.059,-0.0611,-0.0642,-0.0656,-0.0678,-0.0696,-0.0721,-0.0725,-0.0759,-0.0753,-0.0767,-0.0782,-0.0783,-0.0787,-0.0791,-0.0791,-0.0791,-0.0792,-0.0791,-0.079,-0.079,0,-0.0419,-0.0463,-0.0489,-0.0504,-0.0549,-0.056,-0.0579,-0.061,-0.0628,-0.0655,-0.0667,-0.0696,-0.0713,-0.0736,-0.0762,-0.0762,-0.0794,-0.08,-0.0807,-0.0807,-0.0813,-0.0813,-0.0817,-0.0821,-0.0821,-0.0821,-0.0821,0,-0.0423,-0.0442,-0.0483,-0.0499,-0.0522,-0.0551,-0.0573,-0.0594,-0.0621,-0.0642,-0.0664,-0.0683,-0.0716,-0.074,-0.076,-0.0786,-0.0793,-0.0806,-0.0811,-0.0804,-0.0803,-0.0815,-0.0815,-0.0822,-0.0822,-0.0822,-0.0821,0,-0.0411,-0.0439,-0.0469,-0.0509,-0.052,-0.0535,-0.0569,-0.0586,-0.0608,-0.0634,-0.0641,-0.0676,-0.0704,-0.0733,-0.0771,-0.0785,-0.0811,-0.0818,-0.08,-0.0804,-0.0809,-0.0809,-0.0822,-0.0826,-0.0827,-0.0827,-0.0827,0,-0.0412,-0.0427,-0.0469,-0.0485,-0.0504,-0.0529,-0.0547,-0.0576,-0.0594,-0.0631,-0.0643,-0.0674,-0.0699,-0.0744,-0.0772,-0.0802,-0.081,-0.0813,-0.0815,-0.0808,-0.0811,-0.081,-0.0813,-0.0812,-0.0812,-0.0812,-0.0812,0,-0.0411,-0.0424,-0.045,-0.0481,-0.0502,-0.0528,-0.0554,-0.0566,-0.06,-0.0619,-0.0649,-0.0669,-0.0709,-0.0739,-0.0772,-0.0792,-0.0808,-0.0811,-0.0814,-0.0808,-0.0797,-0.0804,-0.0799,-0.081,-0.0811,-0.0811,-0.0811,-0.0811,-0.0406,-0.0422,-0.0454,-0.0482,-0.0505,-0.0529,-0.0547,-0.0572,-0.0597,-0.0632,-0.0647,-0.0677,-0.0709,-0.0755,-0.0774,-0.0798,-0.0803,-0.0807,-0.0808,-0.0809,-0.0808,-0.0793,-0.0804,-0.0804,-0.0805,-0.0805,-0.0805,0,-0.0407,-0.0429,-0.0455,-0.0492,-0.0514,-0.0527,-0.0557,-0.0575,-0.0601,-0.0629,-0.0654,-0.0689,-0.0718,-0.0749,-0.078,-0.0794,-0.0802,-0.0801,-0.0801,-0.0805,-0.0802,-0.0797,-0.0794,-0.0794,-0.0794,-0.0794,-0.0794,-0.0794,-0.0411,-0.0438,-0.0455,-0.0494,-0.0516,-0.0546,-0.0562,-0.0585,-0.0608,-0.0645,-0.067,-0.069,-0.072,-0.0753,-0.0781,-0.0789,-0.08,-0.0797,-0.0808,-0.0805,-0.0805,-0.0806,-0.0801,-0.0799,-0.0799,-0.0809,-0.0809,-0.0809]}]]